Powrót do katalogu

STARLINK-31799

AktywnyŁącznośćVLEO
NORAD 59652·PAYLOAD·🇺🇸 United States

Wystrzelony May 3, 2024 z Cape Canaveral Space Force Station

Loading…

Następne Przeloty (najbliższe 24 godziny)

TLE

ŚwieżeSource: CelesTrak SupGP

Epoka: Sep 15, 2026, 02:24 UTC

1 59652C 24082X   26258.10048611  .00042509  00000+0  15398-2 0  2582
2 59652  42.9996 139.4482 0001354 275.3455  58.3944 15.27555200    19

Śledź STARLINK-31799 w czasie rzeczywistym z AllMySat

Download on the App Store